Starlink 5660

operational
NORAD ID: 55335 Int'l Des: 2023-013 Owner: SPXS Country: US Constellation: starlink
LEOCIRCULAR

About Starlink 5660

Description loading...

Live Position

Loading 3D Globe...

Upcoming Passes

Altitude History

Altitude vs Time

uPlot chart will show altitude changes over time

Two-Line Element Set

1 55335U 23013E 25258.17234192 -.00002609 00000-0 -17826-3 0 9997
2 55335 43.0026 174.3381 0000644 267.6471 92.4298 15.02516577145308
Epoch: Sep 15, 2025 • Age: 17 hours

Current Status

Altitude 559.3 km
Velocity 7.59 km/s
Sub-Earth Point 24.88°N, 15.07°E
Launch Date Jan 26, 2023
Age 2.6 years
Type internet

Technical Details

Classification Payload
Mass 305.00 kg
Dry Mass 290.00 kg
Total Mass 305.00 kg
Length 0.20 m
Diameter 2.80 m
Span 9.00 m
Shape Box + pan
Manufacturer SPXS
Bus Type Starlink
Phase Status In Orbit
Owner/State SPXS/US

Large Constellations

Loading constellations...